Location: D�nning
(49.2479°N, 12.8491°E)
Time: 02:12:42
(UTC+00:00)

Cosmos 2278 Rocket - Pass Details

Date: 18 September 2020
Orbit: 841 x 845 km, 71.0° (Epoch: 24 October)

Event Time Altitude Azimuth Distance (km) Brightness Sun altitude
Exits shadow 21:22:25 26° 23° (NNE) 1,611 3.9 -34.9°
Drops below altitude 10° 21:24:47 10° 27° (NNE) 2,471 4.9 -35.1°
Sets 21:27:14 0° 29° (NNE) 3,410 5.7 -35.3°
